Change the Weather History Date:

Saturday, October 8, 2011

  Actual Average Record
Temperature  
Mean Temperature 54 °F -  
Max Temperature 59 °F 53 °F 68 °F (2010)
Min Temperature 50 °F 45 °F 39 °F (1998)
Degree Days  
Heating Degree Days 10    
Growing Degree Days 4 (Base 50)    
Moisture  
Dew Point 54 °F    
Average Humidity 90    
Maximum Humidity 100    
Minimum Humidity 68    
Precipitation  
Precipitation 0.04 in - - ()
Sea Level Pressure  
Sea Level Pressure 30.11 in    
Wind  
Wind Speed 15 mph ()    
Max Wind Speed 22 mph    
Max Gust Speed -    
Visibility 5.1 miles    
Events Rain    
Averages and records for this station are not official NWS values.
T = Trace of Precipitation, MM = Missing Value Source: Averaged Metar Reports

Daily Weather History Graph

Daily Weather History Graph

Search for Another Location

Airport or City:

Trip Planner

Search our weather history database for the weather conditions in past years. The results will help you decide how hot, cold, wet, or windy it might be!

Date:

Astronomy

Oct. 08, 2011 Rise Set
Actual Time 7:25 AM BST 6:32 PM BST
Civil Twilight 6:50 AM BST 7:07 PM BST
Nautical Twilight 6:09 AM BST 7:48 PM BST
Astronomical Twilight 5:28 AM BST 8:29 PM BST
Moon 4:57 PM BST (10/8) 3:33 AM BST (10/8)
Length of Visible Light 12h 17m
Length of Day
11h 06m
Waxing Gibbous, 88% of the Moon is Illuminated
Oct 8
Waxing Gibbous
Oct 12
Full
Oct 20
Last Quarter
Oct 26
New
Nov 2
First Quarter

Hourly Weather History & Observations

Time (BST) Temp. Dew Point Humidity Pressure Visibility Wind Dir Wind Speed Gust Speed Precip Events Conditions
12:50 AM 52 °F 47 °F 79%  in - NW 15.0 mph - -  
3:50 AM 53 °F 46 °F 68%  in - WNW 19.6 mph - -  
6:20 AM 53.6 °F 48.2 °F 82% 30.15 in 6.2 mi WNW 18.4 mph - N/A   Mostly Cloudy
6:50 AM 53 °F 47 °F 72%  in - WNW 18.4 mph - -  
6:50 AM 53.6 °F 48.2 °F 82% 30.15 in 6.2 mi WNW 18.4 mph - N/A   Mostly Cloudy
7:20 AM 53.6 °F 48.2 °F 82% 30.18 in 6.2 mi WNW 18.4 mph - N/A   Mostly Cloudy
7:50 AM 53.6 °F 50.0 °F 88% 30.18 in 1.9 mi WNW 15.0 mph - N/A Rain Rain
8:20 AM 53.6 °F 50.0 °F 88% 30.15 in 6.2 mi West 16.1 mph - N/A   Mostly Cloudy
8:50 AM 53.6 °F 50.0 °F 88% 30.15 in 6.2 mi West 16.1 mph - N/A   Mostly Cloudy
9:20 AM 53.6 °F 50.0 °F 88% 30.15 in 6.2 mi West 17.3 mph - N/A   Mostly Cloudy
9:50 AM 54 °F 50 °F 82%  in - West 17.3 mph - -  
9:50 AM 55.4 °F 50.0 °F 82% 30.15 in 6.2 mi West 17.3 mph - N/A   Mostly Cloudy
10:20 AM 53.6 °F 51.8 °F 94% 30.15 in 6.2 mi West 17.3 mph - N/A   Mostly Cloudy
10:50 AM 53.6 °F 51.8 °F 94% 30.15 in 1.9 mi West 13.8 mph - N/A   Light Drizzle
11:20 AM 55.4 °F 53.6 °F 94% 30.15 in 4.3 mi WSW 18.4 mph - N/A   Mostly Cloudy
11:50 AM 55.4 °F 53.6 °F 94% 30.12 in 1.9 mi WSW 18.4 mph - N/A Rain Light Rain
12:20 PM 55.4 °F 55.4 °F 100% 30.12 in 3.7 mi WSW 18.4 mph - N/A Rain Light Rain
12:50 PM 56 °F 54 °F 92%  in - West 17.3 mph - -  
12:50 PM 57.2 °F 55.4 °F 94% 30.12 in 5.6 mi West 16.1 mph - N/A   Mostly Cloudy
1:20 PM 57.2 °F 55.4 °F 94% 30.12 in 6.2 mi West 17.3 mph - N/A   Mostly Cloudy
1:50 PM 57.2 °F 55.4 °F 94% 30.12 in 5.6 mi West 15.0 mph - N/A   Mostly Cloudy
2:20 PM 57.2 °F 55.4 °F 94% 30.12 in 6.2 mi West 12.7 mph - N/A   Mostly Cloudy
2:50 PM 57.2 °F 55.4 °F 94% 30.09 in 6.2 mi West 13.8 mph - N/A   Mostly Cloudy
3:20 PM 59.0 °F 57.2 °F 94% 30.09 in 6.2 mi West 15.0 mph - N/A   Mostly Cloudy
3:50 PM 58 °F 56 °F 91%  in - West 13.8 mph - -  
3:50 PM 59.0 °F 57.2 °F 94% 30.09 in 6.2 mi West 13.8 mph - N/A   Mostly Cloudy
4:20 PM 59.0 °F 57.2 °F 94% 30.09 in 2.5 mi West 12.7 mph - N/A   Light Drizzle
4:50 PM 59.0 °F 57.2 °F 94% 30.09 in 6.2 mi West 11.5 mph - N/A   Scattered Clouds
5:20 PM 59.0 °F 57.2 °F 94% 30.09 in 6.2 mi West 12.7 mph - N/A   Scattered Clouds
5:50 PM 59.0 °F 57.2 °F 94% 30.06 in 6.2 mi West 12.7 mph - N/A Rain Light Rain
6:20 PM 59.0 °F 57.2 °F 94% 30.06 in 3.7 mi WSW 16.1 mph - N/A Rain Light Rain Showers
6:50 PM 58 °F 56 °F 91%  in - WSW 15.0 mph - -  
6:50 PM 59.0 °F 57.2 °F 94% 30.06 in 3.7 mi WSW 16.1 mph - N/A Rain Light Rain Showers
7:20 PM 59.0 °F 57.2 °F 94% 30.06 in 3.7 mi WSW 15.0 mph - N/A Rain Light Rain
7:50 PM 59.0 °F 57.2 °F 94% 30.06 in 4.3 mi WSW 17.3 mph - N/A Rain Rain
8:20 PM 59.0 °F 57.2 °F 94% 30.06 in 6.2 mi WSW 18.4 mph - N/A   Mostly Cloudy
9:50 PM 58 °F 57 °F 96%  in - WSW 21.9 mph - -